Location: Newark
(47.5008°N, 9.7480°E)
Time: 13:46:01
(UTC+00:00)

Falcon 9 debris - Visible Passes

Search period start: 23 July 2019 00:00
Search period end: 02 August 2019 00:00
Orbit: 431 x 439 km, 53.0° (Epoch: 22 July)

Date Brightness Start Highest point End Pass type
(mag) Time Alt. Az. Time Alt. Az. Time Alt. Az.
23 Jul 3.5 00:08:55 60° NW 00:09:02 61° NNW 00:12:27 10° ENE visible
23 Jul 4.9 01:43:22 10° WNW 01:46:30 31° N 01:49:38 10° ENE visible
23 Jul 4.1 23:27:45 43° NE 23:27:45 43° NE 23:30:12 10° ENE visible
24 Jul 4.8 01:01:00 10° WNW 01:04:07 33° N 01:07:17 10° ENE visible
24 Jul 4.6 02:38:25 10° WNW 02:41:42 39° NNE 02:44:58 10° E visible
24 Jul 5.0 22:46:29 23° ENE 22:46:29 23° ENE 22:47:55 10° ENE visible
25 Jul 4.7 00:19:44 19° WNW 00:21:44 36° N 00:24:58 10° ENE visible
25 Jul 4.8 01:56:08 10° WNW 01:59:19 35° N 02:02:32 10° ENE visible
25 Jul 5.5 22:05:02 14° ENE 22:05:02 14° ENE 22:05:37 10° ENE visible
25 Jul 4.4 23:38:16 30° WNW 23:39:23 41° NNW 23:42:40 10° ENE visible
26 Jul 5.0 01:13:47 10° WNW 01:16:57 32° N 01:20:06 10° ENE visible
26 Jul 3.4 02:50:54 10° WNW 02:54:22 73° NNE 02:57:47 10° ESE visible
26 Jul 5.7 21:23:09 11° ENE 21:23:09 11° ENE 21:23:16 10° ENE visible
26 Jul 4.0 22:56:19 41° WNW 22:57:02 49° NNW 23:00:24 10° ENE visible
27 Jul 5.0 00:31:25 10° WNW 00:34:33 31° N 00:37:41 10° ENE visible
27 Jul 3.8 02:08:38 10° WNW 02:12:03 56° NNE 02:15:26 10° ESE visible
27 Jul 4.0 20:34:54 10° SSW 20:37:51 27° SE 20:40:49 10° E visible
27 Jul 3.6 22:11:16 10° WSW 22:14:42 62° NNW 22:18:08 10° ENE visible
27 Jul 5.0 23:49:01 10° WNW 23:52:10 31° N 23:55:18 10° ENE visible
28 Jul 4.2 01:26:22 10° WNW 01:29:42 45° NNE 01:33:02 10° E visible
28 Jul 3.5 03:03:28 10° WNW 03:06:46 43° SW 03:10:02 10° SE visible
28 Jul 4.5 19:53:13 10° S 19:55:43 19° SE 19:58:13 10° E visible
28 Jul 3.1 21:28:56 10° WSW 21:32:24 81° NNW 21:35:52 10° ENE visible
28 Jul 4.9 23:06:36 10° WNW 23:09:46 33° N 23:12:57 10° ENE visible
29 Jul 4.6 00:44:05 10° WNW 00:47:21 39° NNE 00:50:37 10° E visible
29 Jul 3.1 02:21:08 10° WNW 02:24:33 62° SSW 02:27:56 10° SE visible
29 Jul 3.0 20:46:41 10° SW 20:50:07 75° SSE 20:53:35 10° ENE visible
29 Jul 4.7 22:24:09 10° W 22:27:23 36° NNW 22:30:37 10° ENE visible
30 Jul 4.8 00:01:46 10° WNW 00:04:58 34° N 00:08:10 10° ENE visible
30 Jul 3.0 01:38:49 10° WNW 01:42:17 86° SSW 01:45:44 10° ESE visible
30 Jul 4.8 03:16:47 10° W 03:18:52 15° SW 03:20:57 10° S visible
30 Jul 3.2 20:04:30 10° SW 20:07:52 53° SE 20:11:16 10° ENE visible
30 Jul 4.4 21:41:42 10° W 21:45:00 41° NNW 21:48:19 10° ENE visible
30 Jul 4.9 23:19:25 10° WNW 23:22:35 32° N 23:25:44 10° ENE visible
31 Jul 3.3 00:56:32 10° WNW 01:00:00 72° NNE 01:03:26 10° ESE visible
31 Jul 4.3 02:34:02 10° W 02:36:45 22° SW 02:39:27 10° S visible
31 Jul 4.1 20:59:16 10° W 21:02:40 50° NNW 21:06:02 10° ENE visible
31 Jul 5.0 22:37:02 10° WNW 22:40:11 31° N 22:43:12 11° ENE visible
01 Aug 4.6 00:14:16 10° WNW 00:16:22 32° NW 00:16:22 32° NW visible
01 Aug 3.6 20:16:53 10° WSW 20:20:19 63° NNW 20:23:45 10° ENE visible
01 Aug 5.0 21:54:37 10° WNW 21:57:46 32° N 22:00:55 10° ENE visible
01 Aug 4.6 23:31:59 10° WNW 23:34:23 35° NNW 23:34:23 35° NNW visible
